Year,Month,Day,Hour,Minute,Value (Times are PST for barometer in hPa)
2016,10,16,00,00,984.32
2016,10,16,00,01,984.36
2016,10,16,00,02,984.42
2016,10,16,00,03,984.42
2016,10,16,00,04,984.46
2016,10,16,00,05,984.53
2016,10,16,00,06,984.59
2016,10,16,00,07,984.59
2016,10,16,00,08,984.63
2016,10,16,00,09,984.66
2016,10,16,00,10,984.69
2016,10,16,00,11,984.69
2016,10,16,00,12,984.80
2016,10,16,00,13,984.83
2016,10,16,00,14,984.86
2016,10,16,00,15,984.86
2016,10,16,00,16,984.90
2016,10,16,00,17,984.90
2016,10,16,00,18,984.90
2016,10,16,00,19,984.97
2016,10,16,00,20,985.00
2016,10,16,00,21,985.03
2016,10,16,00,22,985.07
2016,10,16,00,23,985.03
2016,10,16,00,24,985.10
2016,10,16,00,25,985.10
2016,10,16,00,26,985.07
2016,10,16,00,27,985.13
2016,10,16,00,28,985.20
2016,10,16,00,29,985.27
2016,10,16,00,30,985.30
2016,10,16,00,31,985.34
2016,10,16,00,32,985.37
2016,10,16,00,33,985.41
2016,10,16,00,34,985.44
2016,10,16,00,35,985.47
2016,10,16,00,36,985.51
2016,10,16,00,37,985.57
2016,10,16,00,38,985.61
2016,10,16,00,39,985.68
2016,10,16,00,40,985.68
2016,10,16,00,41,985.74
2016,10,16,00,42,985.71
2016,10,16,00,43,985.85
2016,10,16,00,44,985.81
2016,10,16,00,45,985.85
2016,10,16,00,46,985.85
2016,10,16,00,47,985.88
2016,10,16,00,48,985.91
2016,10,16,00,49,985.98
2016,10,16,00,50,986.02
2016,10,16,00,51,986.05
2016,10,16,00,52,986.08
2016,10,16,00,53,986.12
2016,10,16,00,54,986.15
2016,10,16,00,55,986.18
2016,10,16,00,56,986.22
2016,10,16,00,57,986.22
2016,10,16,00,58,986.25
2016,10,16,00,59,986.32
2016,10,16,01,00,986.32
2016,10,16,01,01,986.35
2016,10,16,01,02,986.42
2016,10,16,01,03,986.46
2016,10,16,01,04,986.42
2016,10,16,01,05,986.46
2016,10,16,01,06,986.52
2016,10,16,01,07,986.52
2016,10,16,01,08,986.56
2016,10,16,01,09,986.59
2016,10,16,01,10,986.59
2016,10,16,01,11,986.66
2016,10,16,01,12,986.66
2016,10,16,01,13,986.69
2016,10,16,01,14,986.73
2016,10,16,01,15,986.73
2016,10,16,01,16,986.73
2016,10,16,01,17,986.79
2016,10,16,01,18,986.83
2016,10,16,01,19,986.83
2016,10,16,01,20,986.86
2016,10,16,01,21,986.86
2016,10,16,01,22,986.86
2016,10,16,01,23,986.90
2016,10,16,01,24,986.93
2016,10,16,01,25,986.93
2016,10,16,01,26,986.93
2016,10,16,01,27,987.00
2016,10,16,01,28,987.03
2016,10,16,01,29,987.10
2016,10,16,01,30,987.17
2016,10,16,01,31,987.20
2016,10,16,01,32,987.20
2016,10,16,01,33,987.23
2016,10,16,01,34,987.30
2016,10,16,01,35,987.34
2016,10,16,01,36,987.34
2016,10,16,01,37,987.37
2016,10,16,01,38,987.37
2016,10,16,01,39,987.44
2016,10,16,01,40,987.44
2016,10,16,01,41,987.44
2016,10,16,01,42,987.44
2016,10,16,01,43,987.44
2016,10,16,01,44,987.51
2016,10,16,01,45,987.51
2016,10,16,01,46,987.61
2016,10,16,01,47,987.57
2016,10,16,01,48,987.61
2016,10,16,01,49,987.64
2016,10,16,01,50,987.67
2016,10,16,01,51,987.67
2016,10,16,01,52,987.71
2016,10,16,01,53,987.71
2016,10,16,01,54,987.78
2016,10,16,01,55,987.78
2016,10,16,01,56,987.84
2016,10,16,01,57,987.88
2016,10,16,01,58,987.91
2016,10,16,01,59,987.91
2016,10,16,02,00,987.91
2016,10,16,02,01,987.95
2016,10,16,02,02,988.01
2016,10,16,02,03,988.05
2016,10,16,02,04,988.08
2016,10,16,02,05,988.11
2016,10,16,02,06,988.15
2016,10,16,02,07,988.15
2016,10,16,02,08,988.18
2016,10,16,02,09,988.22
2016,10,16,02,10,988.22
2016,10,16,02,11,988.25
2016,10,16,02,12,988.32
2016,10,16,02,13,988.32
2016,10,16,02,14,988.42
2016,10,16,02,15,988.42
2016,10,16,02,16,988.45
2016,10,16,02,17,988.49
2016,10,16,02,18,988.52
2016,10,16,02,19,988.55
2016,10,16,02,20,988.55
2016,10,16,02,21,988.59
2016,10,16,02,22,988.59
2016,10,16,02,23,988.59
2016,10,16,02,24,988.59
2016,10,16,02,25,988.62
2016,10,16,02,26,988.66
2016,10,16,02,27,988.69
2016,10,16,02,28,988.72
2016,10,16,02,29,988.79
2016,10,16,02,30,988.79
2016,10,16,02,31,988.86
2016,10,16,02,32,988.89
2016,10,16,02,33,988.86
2016,10,16,02,34,988.86
2016,10,16,02,35,988.86
2016,10,16,02,36,988.86
2016,10,16,02,37,988.89
2016,10,16,02,38,988.89
2016,10,16,02,39,988.89
2016,10,16,02,40,988.93
2016,10,16,02,41,988.96
2016,10,16,02,42,989.00
2016,10,16,02,43,988.96
2016,10,16,02,44,989.00
2016,10,16,02,45,989.10
2016,10,16,02,46,989.06
2016,10,16,02,47,989.06
2016,10,16,02,48,989.06
2016,10,16,02,49,989.13
2016,10,16,02,50,989.13
2016,10,16,02,51,989.16
2016,10,16,02,52,989.16
2016,10,16,02,53,989.16
2016,10,16,02,54,989.13
2016,10,16,02,55,989.13
2016,10,16,02,56,989.10
2016,10,16,02,57,989.20
2016,10,16,02,58,989.20
2016,10,16,02,59,989.20
2016,10,16,03,00,989.23
2016,10,16,03,01,989.20
2016,10,16,03,02,989.27
2016,10,16,03,03,989.23
2016,10,16,03,04,989.27
2016,10,16,03,05,989.27
2016,10,16,03,06,989.33
2016,10,16,03,07,989.37
2016,10,16,03,08,989.37
2016,10,16,03,09,989.40
2016,10,16,03,10,989.44
2016,10,16,03,11,989.44
2016,10,16,03,12,989.50
2016,10,16,03,13,989.50
2016,10,16,03,14,989.54
2016,10,16,03,15,989.54
2016,10,16,03,16,989.57
2016,10,16,03,17,989.57
2016,10,16,03,18,989.57
2016,10,16,03,19,989.60
2016,10,16,03,20,989.64
2016,10,16,03,21,989.64
2016,10,16,03,22,989.64
2016,10,16,03,23,989.60
2016,10,16,03,24,989.60
2016,10,16,03,25,989.64
2016,10,16,03,26,989.60
2016,10,16,03,27,989.60
2016,10,16,03,28,989.60
2016,10,16,03,29,989.67
2016,10,16,03,30,989.64
2016,10,16,03,31,989.67
2016,10,16,03,32,989.67
2016,10,16,03,33,989.71
2016,10,16,03,34,989.71
2016,10,16,03,35,989.74
2016,10,16,03,36,989.74
2016,10,16,03,37,989.67
2016,10,16,03,38,989.74
2016,10,16,03,39,989.74
2016,10,16,03,40,989.74
2016,10,16,03,41,989.74
2016,10,16,03,42,989.77
2016,10,16,03,43,989.77
2016,10,16,03,44,989.74
2016,10,16,03,45,989.77
2016,10,16,03,46,989.74
2016,10,16,03,47,989.74
2016,10,16,03,48,989.77
2016,10,16,03,49,989.81
2016,10,16,03,50,989.77
2016,10,16,03,51,989.81
2016,10,16,03,52,989.77
2016,10,16,03,53,989.81
2016,10,16,03,54,989.77
2016,10,16,03,55,989.81
2016,10,16,03,56,989.81
2016,10,16,03,57,989.77
2016,10,16,03,58,989.81
2016,10,16,03,59,989.81
2016,10,16,04,00,989.81
2016,10,16,04,01,989.84
2016,10,16,04,02,989.88
2016,10,16,04,03,989.84
2016,10,16,04,04,989.84
2016,10,16,04,05,989.77
2016,10,16,04,06,989.81
2016,10,16,04,07,989.77
2016,10,16,04,08,989.81
2016,10,16,04,09,989.81
2016,10,16,04,10,989.84
2016,10,16,04,11,989.77
2016,10,16,04,12,989.81
2016,10,16,04,13,989.84
2016,10,16,04,14,989.84
2016,10,16,04,15,989.84
2016,10,16,04,16,989.81
2016,10,16,04,17,989.81
2016,10,16,04,18,989.77
2016,10,16,04,19,989.77
2016,10,16,04,20,989.81
2016,10,16,04,21,989.84
2016,10,16,04,22,989.88
2016,10,16,04,23,989.91
2016,10,16,04,24,989.91
2016,10,16,04,25,989.94
2016,10,16,04,26,989.98
2016,10,16,04,27,989.94
2016,10,16,04,28,989.94
2016,10,16,04,29,989.98
2016,10,16,04,30,989.94
2016,10,16,04,31,989.98
2016,10,16,04,32,989.98
2016,10,16,04,33,989.98
2016,10,16,04,34,990.01
2016,10,16,04,35,990.01
2016,10,16,04,36,989.98
2016,10,16,04,37,989.98
2016,10,16,04,38,989.98
2016,10,16,04,39,990.04
2016,10,16,04,40,990.01
2016,10,16,04,41,989.98
2016,10,16,04,42,989.98
2016,10,16,04,43,989.94
2016,10,16,04,44,989.94
2016,10,16,04,45,989.94
2016,10,16,04,46,989.94
2016,10,16,04,47,989.94
2016,10,16,04,48,989.94
2016,10,16,04,49,989.98
2016,10,16,04,50,989.94
2016,10,16,04,51,989.94
2016,10,16,04,52,989.94
2016,10,16,04,53,989.91
2016,10,16,04,54,989.91
2016,10,16,04,55,989.91
2016,10,16,04,56,989.91
2016,10,16,04,57,989.91
2016,10,16,04,58,989.91
2016,10,16,04,59,989.88
2016,10,16,05,00,989.88
2016,10,16,05,01,989.88
2016,10,16,05,02,989.91
2016,10,16,05,03,989.88
2016,10,16,05,04,989.88
2016,10,16,05,05,989.88
2016,10,16,05,06,989.88
2016,10,16,05,07,989.81
2016,10,16,05,08,989.84
2016,10,16,05,09,989.77
2016,10,16,05,10,989.84
2016,10,16,05,11,989.81
2016,10,16,05,12,989.84
2016,10,16,05,13,989.84
2016,10,16,05,14,989.81
2016,10,16,05,15,989.81
2016,10,16,05,16,989.81
2016,10,16,05,17,989.81
2016,10,16,05,18,989.81
2016,10,16,05,19,989.77
2016,10,16,05,20,989.77
2016,10,16,05,21,989.77
2016,10,16,05,22,989.74
2016,10,16,05,23,989.81
2016,10,16,05,24,989.77
2016,10,16,05,25,989.77
2016,10,16,05,26,989.81
2016,10,16,05,27,989.74
2016,10,16,05,28,989.77
2016,10,16,05,29,989.74
2016,10,16,05,30,989.71
2016,10,16,05,31,989.71
2016,10,16,05,32,989.74
2016,10,16,05,33,989.74
2016,10,16,05,34,989.77
2016,10,16,05,35,989.74
2016,10,16,05,36,989.74
2016,10,16,05,37,989.77
2016,10,16,05,38,989.74
2016,10,16,05,39,989.77
2016,10,16,05,40,989.77
2016,10,16,05,41,989.77
2016,10,16,05,42,989.74
2016,10,16,05,43,989.74
2016,10,16,05,44,989.71
2016,10,16,05,45,989.67
2016,10,16,05,46,989.71
2016,10,16,05,47,989.74
2016,10,16,05,48,989.74
2016,10,16,05,49,989.71
2016,10,16,05,50,989.74
2016,10,16,05,51,989.74
2016,10,16,05,52,989.71
2016,10,16,05,53,989.74
2016,10,16,05,54,989.77
2016,10,16,05,55,989.81
2016,10,16,05,56,989.84
2016,10,16,05,57,989.88
2016,10,16,05,58,989.88
2016,10,16,05,59,989.91
2016,10,16,06,00,989.91
2016,10,16,06,01,989.88
2016,10,16,06,02,989.88
2016,10,16,06,03,989.88
2016,10,16,06,04,989.88
2016,10,16,06,05,989.84
2016,10,16,06,06,989.88
2016,10,16,06,07,989.84
2016,10,16,06,08,989.84
2016,10,16,06,09,989.81
2016,10,16,06,10,989.81
2016,10,16,06,11,989.81
2016,10,16,06,12,989.74
2016,10,16,06,13,989.71
2016,10,16,06,14,989.71
2016,10,16,06,15,989.71
2016,10,16,06,16,989.71
2016,10,16,06,17,989.74
2016,10,16,06,18,989.67
2016,10,16,06,19,989.64
2016,10,16,06,20,989.71
2016,10,16,06,21,989.67
2016,10,16,06,22,989.67
2016,10,16,06,23,989.67
2016,10,16,06,24,989.67
2016,10,16,06,25,989.71
2016,10,16,06,26,989.67
2016,10,16,06,27,989.71
2016,10,16,06,28,989.77
2016,10,16,06,29,989.77
2016,10,16,06,30,989.77
2016,10,16,06,31,989.77
2016,10,16,06,32,989.77
2016,10,16,06,33,989.77
2016,10,16,06,34,989.74
2016,10,16,06,35,989.74
2016,10,16,06,36,989.71
2016,10,16,06,37,989.71
2016,10,16,06,38,989.71
2016,10,16,06,39,989.71
2016,10,16,06,40,989.71
2016,10,16,06,41,989.71
2016,10,16,06,42,989.64
2016,10,16,06,43,989.67
2016,10,16,06,44,989.67
2016,10,16,06,45,989.64
2016,10,16,06,46,989.67
2016,10,16,06,47,989.64
2016,10,16,06,48,989.64
2016,10,16,06,49,989.64
2016,10,16,06,50,989.60
2016,10,16,06,51,989.60
2016,10,16,06,52,989.64
2016,10,16,06,53,989.54
2016,10,16,06,54,989.54
2016,10,16,06,55,989.50
2016,10,16,06,56,989.54
2016,10,16,06,57,989.54
2016,10,16,06,58,989.57
2016,10,16,06,59,989.54
2016,10,16,07,00,989.54
2016,10,16,07,01,989.60
2016,10,16,07,02,989.57
2016,10,16,07,03,989.60
2016,10,16,07,04,989.57
2016,10,16,07,05,989.57
2016,10,16,07,06,989.54
2016,10,16,07,07,989.57
2016,10,16,07,08,989.57
2016,10,16,07,09,989.57
2016,10,16,07,10,989.54
2016,10,16,07,11,989.57
2016,10,16,07,12,989.54
2016,10,16,07,13,989.57
2016,10,16,07,14,989.57
2016,10,16,07,15,989.57
2016,10,16,07,16,989.54
2016,10,16,07,17,989.54
2016,10,16,07,18,989.57
2016,10,16,07,19,989.57
2016,10,16,07,20,989.57
2016,10,16,07,21,989.57
2016,10,16,07,22,989.57
2016,10,16,07,23,989.57
2016,10,16,07,24,989.54
2016,10,16,07,25,989.57
2016,10,16,07,26,989.57
2016,10,16,07,27,989.57
2016,10,16,07,28,989.60
2016,10,16,07,29,989.60
2016,10,16,07,30,989.60
2016,10,16,07,31,989.64
2016,10,16,07,32,989.60
2016,10,16,07,33,989.64
2016,10,16,07,34,989.60
2016,10,16,07,35,989.57
2016,10,16,07,36,989.57
2016,10,16,07,37,989.54
2016,10,16,07,38,989.57
2016,10,16,07,39,989.54
2016,10,16,07,40,989.50
2016,10,16,07,41,989.54
2016,10,16,07,42,989.57
2016,10,16,07,43,989.57
2016,10,16,07,44,989.54
2016,10,16,07,45,989.54
2016,10,16,07,46,989.47
2016,10,16,07,47,989.50
2016,10,16,07,48,989.47
2016,10,16,07,49,989.47
2016,10,16,07,50,989.50
2016,10,16,07,51,989.47
2016,10,16,07,52,989.47
2016,10,16,07,53,989.47
2016,10,16,07,54,989.44
2016,10,16,07,55,989.40
2016,10,16,07,56,989.40
2016,10,16,07,57,989.40
2016,10,16,07,58,989.44
2016,10,16,07,59,989.44
2016,10,16,08,00,989.47
2016,10,16,08,01,989.47
2016,10,16,08,02,989.44
2016,10,16,08,03,989.50
2016,10,16,08,04,989.50
2016,10,16,08,05,989.47
2016,10,16,08,06,989.47
2016,10,16,08,07,989.47
2016,10,16,08,08,989.47
2016,10,16,08,09,989.44
2016,10,16,08,10,989.54
2016,10,16,08,11,989.50
2016,10,16,08,12,989.44
2016,10,16,08,13,989.47
2016,10,16,08,14,989.40
2016,10,16,08,15,989.44
2016,10,16,08,16,989.44
2016,10,16,08,17,989.37
2016,10,16,08,18,989.33
2016,10,16,08,19,989.40
2016,10,16,08,20,989.40
2016,10,16,08,21,989.37
2016,10,16,08,22,989.37
2016,10,16,08,23,989.33
2016,10,16,08,24,989.33
2016,10,16,08,25,989.37
2016,10,16,08,26,989.37
2016,10,16,08,27,989.37
2016,10,16,08,28,989.40
2016,10,16,08,29,989.37
2016,10,16,08,30,989.44
2016,10,16,08,31,989.40
2016,10,16,08,32,989.37
2016,10,16,08,33,989.40
2016,10,16,08,34,989.37
2016,10,16,08,35,989.40
2016,10,16,08,36,989.37
2016,10,16,08,37,989.40
2016,10,16,08,38,989.40
2016,10,16,08,39,989.50
2016,10,16,08,40,989.40
2016,10,16,08,41,989.44
2016,10,16,08,42,989.37
2016,10,16,08,43,989.40
2016,10,16,08,44,989.37
2016,10,16,08,45,989.40
2016,10,16,08,46,989.44
2016,10,16,08,47,989.37
2016,10,16,08,48,989.44
2016,10,16,08,49,989.40
2016,10,16,08,50,989.44
2016,10,16,08,51,989.47
2016,10,16,08,52,989.50
2016,10,16,08,53,989.54
2016,10,16,08,54,989.50
2016,10,16,08,55,989.44
2016,10,16,08,56,989.47
2016,10,16,08,57,989.54
2016,10,16,08,58,989.54
2016,10,16,08,59,989.54
2016,10,16,09,00,989.50
2016,10,16,09,01,989.50
2016,10,16,09,02,989.44
2016,10,16,09,03,989.54
2016,10,16,09,04,989.54
2016,10,16,09,05,989.47
2016,10,16,09,06,989.50
2016,10,16,09,07,989.57
2016,10,16,09,08,989.54
2016,10,16,09,09,989.57
2016,10,16,09,10,989.60
2016,10,16,09,11,989.57
2016,10,16,09,12,989.54
2016,10,16,09,13,989.54
2016,10,16,09,14,989.57
2016,10,16,09,15,989.54
2016,10,16,09,16,989.54
2016,10,16,09,17,989.57
2016,10,16,09,18,989.57
2016,10,16,09,19,989.54
2016,10,16,09,20,989.57
2016,10,16,09,21,989.54
2016,10,16,09,22,989.60
2016,10,16,09,23,989.60
2016,10,16,09,24,989.64
2016,10,16,09,25,989.67
2016,10,16,09,26,989.67
2016,10,16,09,27,989.67
2016,10,16,09,28,989.74
2016,10,16,09,29,989.71
2016,10,16,09,30,989.67
2016,10,16,09,31,989.74
2016,10,16,09,32,989.71
2016,10,16,09,33,989.64
2016,10,16,09,34,989.64
2016,10,16,09,35,989.71
2016,10,16,09,36,989.67
2016,10,16,09,37,989.64
2016,10,16,09,38,989.64
2016,10,16,09,39,989.60
2016,10,16,09,40,989.64
2016,10,16,09,41,989.60
2016,10,16,09,42,989.64
2016,10,16,09,43,989.64
2016,10,16,09,44,989.67
2016,10,16,15,37,989.88
2016,10,16,15,38,989.88
2016,10,16,15,39,989.91
2016,10,16,15,40,989.84
2016,10,16,15,41,989.88
2016,10,16,15,42,989.91
2016,10,16,15,43,989.91
2016,10,16,15,44,989.91
2016,10,16,15,45,990.01
2016,10,16,15,46,990.01
2016,10,16,15,47,990.01
2016,10,16,15,48,990.04
2016,10,16,15,49,990.01
2016,10,16,15,50,990.01
2016,10,16,15,51,989.98
2016,10,16,15,52,989.98
2016,10,16,15,53,990.01
2016,10,16,15,54,990.08
2016,10,16,15,55,990.04
2016,10,16,15,56,990.08
2016,10,16,15,57,990.01
2016,10,16,15,58,990.01
2016,10,16,15,59,990.01
2016,10,16,16,00,990.08
2016,10,16,16,01,990.04
2016,10,16,16,02,989.98
2016,10,16,16,03,990.01
2016,10,16,16,04,990.01
2016,10,16,16,05,990.04
2016,10,16,16,06,990.04
2016,10,16,16,07,990.04
2016,10,16,16,08,990.01
2016,10,16,16,09,990.01
2016,10,16,16,10,990.01
2016,10,16,16,11,989.98
2016,10,16,16,12,989.98
2016,10,16,16,13,990.01
2016,10,16,16,14,990.01
2016,10,16,16,15,990.01
2016,10,16,16,16,990.01
2016,10,16,16,17,989.98
2016,10,16,16,18,990.01
2016,10,16,16,19,990.01
2016,10,16,16,20,990.04
2016,10,16,16,21,989.98
2016,10,16,16,22,989.98
2016,10,16,16,23,990.01
2016,10,16,16,24,990.04
2016,10,16,16,25,990.04
2016,10,16,16,26,990.01
2016,10,16,16,27,989.98
2016,10,16,16,28,989.98
2016,10,16,16,29,989.94
2016,10,16,16,30,989.98
2016,10,16,16,31,989.98
2016,10,16,16,32,989.94
2016,10,16,16,33,989.94
2016,10,16,16,34,989.98
2016,10,16,16,35,989.98
2016,10,16,16,36,990.10
2016,10,16,16,37,990.08
2016,10,16,16,38,990.08
2016,10,16,16,39,990.11
2016,10,16,16,40,990.11
2016,10,16,16,41,990.04
2016,10,16,16,42,990.01
2016,10,16,16,43,990.01
2016,10,16,16,44,990.08
2016,10,16,16,45,990.08
2016,10,16,16,46,990.11
2016,10,16,16,47,990.11
2016,10,16,16,48,990.08
2016,10,16,16,49,990.08
2016,10,16,16,50,990.01
2016,10,16,16,51,990.01
2016,10,16,16,52,990.08
2016,10,16,16,53,990.11
2016,10,16,16,54,990.15
2016,10,16,16,55,990.18
2016,10,16,16,56,990.21
2016,10,16,16,57,990.18
2016,10,16,16,58,990.18
2016,10,16,16,59,990.15
2016,10,16,17,00,990.15
2016,10,16,17,01,990.18
2016,10,16,17,02,990.21
2016,10,16,17,03,990.21
2016,10,16,17,04,990.21
2016,10,16,17,05,990.15
2016,10,16,17,06,990.15
2016,10,16,17,07,990.15
2016,10,16,17,08,990.15
2016,10,16,17,09,990.28
2016,10,16,17,10,990.25
2016,10,16,17,11,990.18
2016,10,16,17,12,990.21
2016,10,16,17,13,990.25
2016,10,16,17,14,990.25
2016,10,16,17,15,990.21
2016,10,16,17,16,990.18
2016,10,16,17,17,990.18
2016,10,16,17,18,990.21
2016,10,16,17,19,990.15
2016,10,16,17,20,990.18
2016,10,16,17,21,990.18
2016,10,16,17,22,990.11
2016,10,16,17,23,990.18
2016,10,16,17,24,990.18
2016,10,16,17,25,990.15
2016,10,16,17,26,990.18
2016,10,16,17,27,990.21
2016,10,16,17,28,990.25
2016,10,16,17,29,990.21
2016,10,16,17,30,990.25
2016,10,16,17,31,990.32
2016,10,16,17,32,990.32
2016,10,16,17,33,990.28
2016,10,16,17,34,990.28
2016,10,16,17,35,990.25
2016,10,16,17,36,990.25
2016,10,16,17,37,990.21
2016,10,16,17,38,990.25
2016,10,16,17,39,990.25
2016,10,16,17,40,990.25
2016,10,16,17,41,990.21
2016,10,16,17,42,990.21
2016,10,16,17,43,990.21
2016,10,16,17,44,990.25
2016,10,16,17,45,990.25
2016,10,16,17,46,990.28
2016,10,16,17,47,990.28
2016,10,16,17,48,990.28
2016,10,16,17,49,990.28
2016,10,16,17,50,990.28
2016,10,16,17,51,990.32
2016,10,16,17,52,990.35
2016,10,16,17,53,990.38
2016,10,16,17,54,990.38
2016,10,16,17,55,990.35
2016,10,16,17,56,990.32
2016,10,16,17,57,990.42
2016,10,16,17,58,990.35
2016,10,16,17,59,990.38
2016,10,16,18,00,990.35
2016,10,16,18,01,990.42
2016,10,16,18,02,990.42
2016,10,16,18,03,990.52
2016,10,16,18,04,990.42
2016,10,16,18,05,990.42
2016,10,16,18,06,990.45
2016,10,16,18,07,990.42
2016,10,16,18,08,990.45
2016,10,16,18,09,990.42
2016,10,16,18,10,990.42
2016,10,16,18,11,990.42
2016,10,16,18,12,990.42
2016,10,16,18,13,990.45
2016,10,16,18,14,990.49
2016,10,16,18,15,990.45
2016,10,16,18,16,990.42
2016,10,16,18,17,990.45
2016,10,16,18,18,990.42
2016,10,16,18,19,990.45
2016,10,16,18,20,990.52
2016,10,16,18,21,990.59
2016,10,16,18,22,990.55
2016,10,16,18,23,990.59
2016,10,16,18,24,990.49
2016,10,16,18,25,990.49
2016,10,16,18,26,990.49
2016,10,16,18,27,990.49
2016,10,16,18,28,990.49
2016,10,16,18,29,990.52
2016,10,16,18,30,990.55
2016,10,16,18,31,990.55
2016,10,16,18,32,990.55
2016,10,16,18,33,990.52
2016,10,16,18,34,990.52
2016,10,16,18,35,990.45
2016,10,16,18,36,990.52
2016,10,16,18,37,990.55
2016,10,16,18,38,990.55
2016,10,16,18,39,990.55
2016,10,16,18,40,990.59
2016,10,16,18,41,990.52
2016,10,16,18,42,990.52
2016,10,16,18,43,990.52
2016,10,16,18,44,990.55
2016,10,16,18,45,990.49
2016,10,16,18,46,990.52
2016,10,16,18,47,990.62
2016,10,16,18,48,990.65
2016,10,16,18,49,990.50
2016,10,16,18,50,990.55
2016,10,16,18,51,990.68
2016,10,16,18,52,990.72
2016,10,16,18,53,990.72
2016,10,16,18,54,990.65
2016,10,16,18,55,990.62
2016,10,16,18,56,990.69
2016,10,16,18,57,990.69
2016,10,16,18,58,990.65
2016,10,16,18,59,990.65
2016,10,16,19,00,990.65
2016,10,16,19,01,990.62
2016,10,16,19,02,990.62
2016,10,16,19,03,990.72
2016,10,16,19,04,990.79
2016,10,16,19,05,990.79
2016,10,16,19,06,990.79
2016,10,16,19,07,990.76
2016,10,16,19,08,990.72
2016,10,16,19,09,990.72
2016,10,16,19,10,990.79
2016,10,16,19,11,990.79
2016,10,16,19,12,990.76
2016,10,16,19,13,990.72
2016,10,16,19,14,990.79
2016,10,16,19,15,990.79
2016,10,16,19,16,990.79
2016,10,16,19,17,990.82
2016,10,16,19,18,990.89
2016,10,16,19,19,990.93
2016,10,16,19,20,990.93
2016,10,16,19,21,990.79
2016,10,16,19,22,990.82
2016,10,16,19,23,990.93
2016,10,16,19,24,990.99
2016,10,16,19,25,991.03
2016,10,16,19,26,991.03
2016,10,16,19,27,990.93
2016,10,16,19,28,990.86
2016,10,16,19,29,990.86
2016,10,16,19,30,990.89
2016,10,16,19,31,990.86
2016,10,16,19,32,990.96
2016,10,16,19,33,990.96
2016,10,16,19,34,990.96
2016,10,16,19,35,990.99
2016,10,16,19,36,991.03
2016,10,16,19,37,991.03
2016,10,16,19,38,990.99
2016,10,16,19,39,990.96
2016,10,16,19,40,991.03
2016,10,16,19,41,991.09
2016,10,16,19,42,991.06
2016,10,16,19,43,991.03
2016,10,16,19,44,991.06
2016,10,16,19,45,991.13
2016,10,16,19,46,991.03
2016,10,16,19,47,991.06
2016,10,16,19,48,991.03
2016,10,16,19,49,991.03
2016,10,16,19,50,991.06
2016,10,16,19,51,991.16
2016,10,16,19,52,991.16
2016,10,16,19,53,991.16
2016,10,16,19,54,991.13
2016,10,16,19,55,991.13
2016,10,16,19,56,991.09
2016,10,16,19,57,991.20
2016,10,16,19,58,991.20
2016,10,16,19,59,991.20
2016,10,16,20,00,991.09
2016,10,16,20,01,991.06
2016,10,16,20,02,991.13
2016,10,16,20,03,991.09
2016,10,16,20,04,991.09
2016,10,16,20,05,991.06
2016,10,16,20,06,991.13
2016,10,16,20,07,991.13
2016,10,16,20,08,991.16
2016,10,16,20,09,991.16
2016,10,16,20,10,991.16
2016,10,16,20,11,991.13
2016,10,16,20,12,991.16
2016,10,16,20,13,991.16
2016,10,16,20,14,991.23
2016,10,16,20,15,991.23
2016,10,16,20,16,991.23
2016,10,16,20,17,991.20
2016,10,16,20,18,991.20
2016,10,16,20,19,991.20
2016,10,16,20,20,991.23
2016,10,16,20,21,991.20
2016,10,16,20,22,991.26
2016,10,16,20,23,991.14
2016,10,16,20,24,991.13
2016,10,16,20,25,991.20
2016,10,16,20,26,991.26
2016,10,16,20,27,991.26
2016,10,16,20,28,991.30
2016,10,16,20,29,991.30
2016,10,16,20,30,991.26
2016,10,16,20,31,991.23
2016,10,16,20,32,991.26
2016,10,16,20,33,991.26
2016,10,16,20,34,991.23
2016,10,16,20,35,991.20
2016,10,16,20,36,991.26
2016,10,16,20,37,991.30
2016,10,16,20,38,991.40
2016,10,16,20,39,991.40
2016,10,16,20,40,991.30
2016,10,16,20,41,991.26
2016,10,16,20,42,991.30
2016,10,16,20,43,991.23
2016,10,16,20,44,991.26
2016,10,16,20,45,991.37
2016,10,16,20,46,991.30
2016,10,16,20,47,991.33
2016,10,16,20,48,991.30
2016,10,16,20,49,991.37
2016,10,16,20,50,991.30
2016,10,16,20,51,991.26
2016,10,16,20,52,991.33
2016,10,16,20,53,991.40
2016,10,16,20,54,991.40
2016,10,16,20,55,991.37
2016,10,16,20,56,991.37
2016,10,16,20,57,991.30
2016,10,16,20,58,991.33
2016,10,16,20,59,991.40
2016,10,16,21,00,991.37
2016,10,16,21,01,991.37
2016,10,16,21,02,991.37
2016,10,16,21,03,991.43
2016,10,16,21,04,991.47
2016,10,16,21,05,991.43
2016,10,16,21,06,991.43
2016,10,16,21,07,991.43
2016,10,16,21,08,991.43
2016,10,16,21,09,991.47
2016,10,16,21,10,991.47
2016,10,16,21,11,991.47
2016,10,16,21,12,991.50
2016,10,16,21,13,991.43
2016,10,16,21,14,991.50
2016,10,16,21,15,991.47
2016,10,16,21,16,991.43
2016,10,16,21,17,991.53
2016,10,16,21,18,991.53
2016,10,16,21,19,991.53
2016,10,16,21,20,991.53
2016,10,16,21,21,991.57
2016,10,16,21,22,991.57
2016,10,16,21,23,991.53
2016,10,16,21,24,991.53
2016,10,16,21,25,991.50
2016,10,16,21,26,991.40
2016,10,16,21,27,991.47
2016,10,16,21,28,991.50
2016,10,16,21,29,991.57
2016,10,16,21,30,991.57
2016,10,16,21,31,991.60
2016,10,16,21,32,991.53
2016,10,16,21,33,991.57
2016,10,16,21,34,991.57
2016,10,16,21,35,991.57
2016,10,16,21,36,991.57
2016,10,16,21,37,991.57
2016,10,16,21,38,991.57
2016,10,16,21,39,991.60
2016,10,16,21,40,991.64
2016,10,16,21,41,991.64
2016,10,16,21,42,991.60
2016,10,16,21,43,991.57
2016,10,16,21,44,991.64
2016,10,16,21,45,991.64
2016,10,16,21,46,991.57
2016,10,16,21,47,991.57
2016,10,16,21,48,991.57
2016,10,16,21,49,991.64
2016,10,16,21,50,991.70
2016,10,16,21,51,991.70
2016,10,16,21,52,991.57
2016,10,16,21,53,991.64
2016,10,16,21,54,991.67
2016,10,16,21,55,991.74
2016,10,16,21,56,991.81
2016,10,16,21,57,991.77
2016,10,16,21,58,991.70
2016,10,16,21,59,991.70
2016,10,16,22,00,991.70
2016,10,16,22,01,991.70
2016,10,16,22,02,991.74
2016,10,16,22,03,991.70
2016,10,16,22,04,991.74
2016,10,16,22,05,991.70
2016,10,16,22,06,991.64
2016,10,16,22,07,991.60
2016,10,16,22,08,991.64
2016,10,16,22,09,991.70
2016,10,16,22,10,991.74
2016,10,16,22,11,991.67
2016,10,16,22,12,991.67
2016,10,16,22,13,991.64
2016,10,16,22,14,991.64
2016,10,16,22,15,991.57
2016,10,16,22,16,991.60
2016,10,16,22,17,991.67
2016,10,16,22,18,991.64
2016,10,16,22,19,991.74
2016,10,16,22,20,991.70
2016,10,16,22,21,991.67
2016,10,16,22,22,991.74
2016,10,16,22,23,991.74
2016,10,16,22,24,991.74
2016,10,16,22,25,991.70
2016,10,16,22,26,991.81
2016,10,16,22,27,991.84
2016,10,16,22,28,991.87